Content
SEND FEEDBACK

Daily
Averages
Monthly
Summary
Canada

MONTREAL, QUEBEC


Home > North America > Canada > Quebec
Elevation: 118 feet     Latitude: 45 28N     Longitude: 073 45W

WEATHER
 
SELECT A DAY
Number of Records: 198,548;   Date Range: 1/1/95 - 8/27/14
 
SHARE

PRINT THIS DATA

[ ← Previous Day ]
WEATHER ALMANAC - JULY 11, 2013
[ Next Day → ]
[ °C ]   °F
Weather ElementAverageHighLow
Temperature73.1 °F78.8 °F (2:00 pm)66.2 °F (6:00 am)
Dewpoint58.8 °F68 °F (2:00 am)51.8 °F (5:00 pm)
Humidity61.1 %88 % (2:00 am)39 % (2:00 pm)
Barometer29.86 in30.04 in (11:00 pm)29.70 in (1:00 am)
Wind Speed9.4 mph15 mph (11:00 pm)
Wind Gust21.9 mph (11:00 pm)
Weather ElementAverage
Visibility21 mi
Wind DirectionWNW (279.3 °)

Weather ElementTotal
Precipitation---
Cooling Degree Days7.5 (Base 65)
Growing Degree Days22.5 (Base 50)
Averaged from 27 records on July 11, 2013
WEATHER CONDITIONS BREAKOUT
WIND DIRECTION BREAKOUT
WEATHER BY HOUR - JULY 11, 2013
[ °C ]   °F
Local TimeTemperatureDewpointHumidityBarometerVisibilityWind DirectionWind SpeedGust SpeedPrecipitationEventsConditions
1:00 AM71.6 °F66.2 °F83 %29.70 in15.0 miSSW (200°)11.5 mphOvercast
2:00 AM71.0 °F68.0 °F87 %29.70 in15.0 miSW (220°)9.2 mphPartly Cloudy
2:00 AM71.6 °F68.0 °F88 %29.70 in15.0 miSW (220°)8.1 mphMostly Cloudy
3:00 AM71.6 °F66.2 °F83 %29.70 in15.0 miWSW (240°)9.2 mphOvercast
4:00 AM71.6 °F64.4 °F78 %29.73 in15.0 miWSW (240°)12.7 mphMostly Cloudy
5:00 AM69.8 °F62.6 °F78 %29.75 in15.0 miWNW (290°)9.2 mphMostly Cloudy
6:00 AM66.2 °F60.8 °F83 %29.77 in15.0 miWest (280°)6.9 mphPartly Cloudy
7:00 AM69.8 °F60.8 °F73 %29.80 in15.0 miWNW (290°)5.8 mphPartly Cloudy
8:00 AM70.0 °F60.0 °F61 %29.83 in15.0 miWNW (300°)9.2 mphPartly Cloudy
8:00 AM69.8 °F59.0 °F68 %29.83 in15.0 miNW (320°)9.2 mphScattered Clouds
9:00 AM71.6 °F60.8 °F69 %29.85 in15.0 miNW (310°)5.8 mphScattered Clouds
10:00 AM71.6 °F59.0 °F64 %29.86 in15.0 miNW (320°)6.9 mphScattered Clouds
11:00 AM73.4 °F59.0 °F61 %29.88 in15.0 miWNW (300°)9.2 mphScattered Clouds
12:00 PM75.2 °F57.2 °F53 %29.89 in30.0 miNW (320°)8.1 mphPartly Cloudy
1:00 PM75.2 °F55.4 °F50 %29.89 in30.0 miNorth (350°)6.9 mphPartly Cloudy
2:00 PM78.0 °F58.0 °F39 %29.89 in28.0 miWNW (300°)6.9 mphPartly Cloudy
2:00 PM78.8 °F57.2 °F47 %29.89 in30.0 miWest (280°)11.5 mphScattered Clouds
3:00 PM78.8 °F57.2 °F47 %29.90 in30.0 miNNW (330°)9.2 mphScattered Clouds
4:00 PM78.8 °F55.4 °F44 %29.91 in30.0 miWNW (300°)11.5 mph20.7 mphScattered Clouds
5:00 PM78.8 °F51.8 °F39 %29.93 in30.0 miNNW (330°)5.8 mphPartly Cloudy
6:00 PM78.8 °F51.8 °F39 %29.94 in30.0 miNNW (330°)11.5 mphScattered Clouds
7:00 PM77.0 °F55.4 °F47 %29.95 in30.0 miNorth (360°)12.7 mphScattered Clouds
8:00 PM74.0 °F55.0 °F40 %29.98 in28.0 miNorth (350°)10.4 mphScattered Clouds
8:00 PM73.4 °F55.4 °F53 %29.98 in30.0 miNorth (350°)9.2 mphPartly Cloudy
9:00 PM71.6 °F55.4 °F57 %29.99 in15.0 miNorth (360°)10.4 mphPartly Cloudy
10:00 PM69.8 °F53.6 °F56 %30.01 in15.0 miNorth (10°)11.5 mphPartly Cloudy
11:00 PM66.2 °F53.6 °F64 %30.04 in15.0 miNE (40°)15.0 mph21.9 mphClear
Hourly data recorded from CYUL, located miles away from Montreal, Quebec







STORIES FROM OUR PARTNERS